Location: Buisson
(44.2787°N, 4.9969°E)
Time: 06:31:51
(UTC+00:00)

Cosmos 1733 - Pass Details

Date: 18 April 2021
Orbit: 503 x 522 km, 82.5° (Epoch: 05 May)

Event Time Altitude Azimuth Distance (km) Brightness Sun altitude
Rises 03:12:45 0° 353° (N) 2,619 7.2 -16.7°
Reaches altitude 10° 03:14:54 10° 356° (N) 1,727 6.2 -16.4°
Maximum altitude 03:18:40 71° 80° (E) 536 3.4 -15.9°
Drops below altitude 10° 03:22:24 10° 166° (SSE) 1,708 5.6 -15.3°
Sets 03:24:30 0° 168° (SSE) 2,586 6.5 -15.0°
